This is the latest recevied weather packets stored in our database for station/object WD4ITN. If no packets are shown the sender has not sent any weather packets the latest 10 day(s).
| Time | Temp. | Humidity | Pressure | Rain* | Wind** | Luminosity | Snow |
|---|---|---|---|---|---|---|---|
| 1777656800 | 14.44° C | 47% | 1009.8 hPa | 0 mm | - | - | - |
| 1777656516 | 14.44° C | 50% | 1010 hPa | 0 mm | - | - | - |
| 1777656208 | 14.44° C | 51% | 1010 hPa | 0 mm | - | - | - |
| 1777655905 | 14.44° C | 49% | 1010 hPa | 0 mm | - | - | - |
| 1777655601 | 13.89° C | 52% | 1010 hPa | 0 mm | - | - | - |
| 1777655297 | 13.33° C | 50% | 1010.1 hPa | 0 mm | - | - | - |
| 1777655016 | 13.89° C | 52% | 1010 hPa | 0 mm | - | - | - |
| 1777654710 | 13.33° C | 52% | 1010.1 hPa | 0 mm | - | - | - |
| 1777654398 | 13.33° C | 51% | 1010.1 hPa | 0 mm | - | - | - |
| 1777654102 | 13.33° C | 52% | 1010.4 hPa | 0 mm | - | - | - |
| 1777653800 | 13.33° C | 56% | 1010.4 hPa | 0 mm | - | - | - |
| 1777653498 | 13.33° C | 52% | 1010.5 hPa | 0 mm | - | - | - |
| 1777653195 | 12.78° C | 54% | 1010.5 hPa | 0 mm | - | - | - |
| 1777652917 | 12.78° C | 58% | 1010.5 hPa | 0 mm | - | - | - |
| 1777652610 | 12.78° C | 52% | 1010.5 hPa | 0 mm | - | - | - |
| 1777652311 | 12.78° C | 53% | 1010.5 hPa | 0 mm | - | - | - |
| 1777652006 | 12.78° C | 58% | 1010.5 hPa | 0 mm | - | - | - |
| 1777651710 | 12.78° C | 57% | 1010.5 hPa | 0 mm | - | - | - |
| 1777651408 | 12.22° C | 61% | 1010.6 hPa | 0 mm | - | - | - |
| 1777651102 | 11.67° C | 55% | 1010.7 hPa | 0 mm | - | - | - |
| 1777650798 | 11.67° C | 56% | 1010.9 hPa | 0 mm | - | - | - |
| 1777650519 | 11.67° C | 59% | 1010.9 hPa | 0 mm | - | - | - |
| 1777650207 | 11.67° C | 55% | 1010.9 hPa | 0 mm | - | - | - |
| 1777649907 | 11.67° C | 55% | 1011 hPa | 0 mm | - | - | - |
| 1777649606 | 11.11° C | 57% | 1011.1 hPa | 0 mm | - | - | - |
* Rain since midnight (hover to see other rain measurements)
** Current wind speed in m/s (hover to see current wind gust speed)